This is the latest recevied weather packets stored in our database for station/object K4SPB-4. If no packets are shown the sender has not sent any weather packets the latest 10 day(s).
| Time | Temp. | Humidity | Pressure | Rain* | Wind** | Luminosity | Snow |
|---|---|---|---|---|---|---|---|
| 1777983017 | 16.67° C | 74% | 1009.4 hPa | 0 mm | - | - | - |
| 1777980630 | 17.22° C | 72% | 1009.1 hPa | 0 mm | - | - | - |
| 1777974647 | 17.78° C | 68% | 1007.8 hPa | 0 mm | - | - | - |
| 1777972217 | 17.78° C | 66% | 1007.6 hPa | 0 mm | - | - | - |
| 1777963825 | 18.33° C | 61% | 1009.4 hPa | 0 mm | - | - | - |
| 1777957823 | 20° C | 56% | 1009.7 hPa | 0 mm | - | - | - |
| 1777956017 | 20° C | 55% | 1009.9 hPa | 0 mm | - | - | - |
| 1777934437 | 26.11° C | 37% | 1009.1 hPa | 0 mm | - | - | - |
| 1777932028 | 26.11° C | 36% | 1009 hPa | 0 mm | - | - | - |
| 1777922432 | 26.11° C | 37% | 1010.9 hPa | 0 mm | - | - | - |
| 1777920025 | 25.56° C | 38% | 1011.3 hPa | 0 mm | - | - | - |
| 1777916432 | 25° C | 42% | 1012.1 hPa | 0 mm | - | - | - |
| 1777915829 | 25° C | 43% | 1012.1 hPa | 0 mm | - | - | - |
| 1777914021 | 24.44° C | 44% | 1012.7 hPa | 0 mm | - | - | - |
| 1777911633 | 23.89° C | 47% | 1013 hPa | 0 mm | - | - | - |
| 1777911030 | 23.33° C | 47% | 1013.1 hPa | 0 mm | - | - | - |
| 1777909225 | 22.78° C | 50% | 1013.4 hPa | 0 mm | - | - | - |
| 1777893025 | 15.56° C | 71% | 1012.7 hPa | 0 mm | - | - | - |
| 1777892420 | 15.56° C | 70% | 1012.6 hPa | 0 mm | - | - | - |
| 1777891819 | 15.56° C | 70% | 1012.6 hPa | 0 mm | - | - | - |
| 1777887624 | 16.11° C | 66% | 1013 hPa | 0 mm | - | - | - |
| 1777887022 | 16.67° C | 66% | 1013.1 hPa | 0 mm | - | - | - |
| 1777885237 | 16.67° C | 64% | 1013.2 hPa | 0 mm | - | - | - |
| 1777877425 | 16.67° C | 58% | 1013.9 hPa | 0 mm | - | - | - |
| 1777876825 | 16.67° C | 58% | 1014.1 hPa | 0 mm | - | - | - |
* Rain latest hour (hover to see other rain measurements)
** Current wind speed in m/s (hover to see current wind gust speed)